This demonstration page uses our WeatherBlox Daily Observations layout. Learn more.

Left ArrowRight Arrow

Hourly Observations for August 3, 2020

Temp ( °F °C ) Dew Point ( °F °C ) Humidity (%) Winds ( mph kmh ) Pressure ( in mb ) Visibility ( mi km ) Precip ( " mm )
12:15 am 00:15 Clear 64 17.5 62 16.8 96 96 Calm 29.96 1015 10 16 0.00 0.00
12:35 am 00:35 Clear 64 17.8 63 17 95 95 Calm 29.96 1015 10 16 0.00 0.00
12:55 am 00:55 Clear 63 17.2 62 16.7 97 97 Calm 29.97 1015 10 16 0.00 0.00
1:15 am 01:15 Clear 64 17.7 63 17 96 96 Calm 29.96 1015 10 16 0.00 0.00
1:35 am 01:35 Partly Cloudy 64 17.9 63 17.2 96 96 WSW 5 7 29.97 1015 10 16 0.00 0.00
1:55 am 01:55 Partly Cloudy 64 18 63 17.3 96 96 Calm 29.96 1015 10 16 0.00 0.00
2:15 am 02:15 Clear 62 16.6 62 16.4 99 99 S 3 6 29.97 1015 10 16 0.00 0.00
2:35 am 02:35 Partly Cloudy 62 16.5 61 16.3 99 99 S 3 6 29.97 1015 10 16 0.00 0.00
2:55 am 02:55 Clear 63 17 62 16.8 99 99 S 5 7 29.96 1014 10 16 0.00 0.00
3:15 am 03:15 Clear 61 16.2 61 16 99 99 S 3 6 29.95 1014 10 16 0.00 0.00
3:35 am 03:35 Clear 61 16.3 61 16.2 99 99 Calm 29.95 1014 10 16 0.00 0.00
3:55 am 03:55 Clear 62 16.4 61 16.2 99 99 SSW 3 6 29.95 1014 10 16 0.00 0.00
4:15 am 04:15 Clear 62 16.5 61 16.3 99 99 Calm 29.95 1014 10 16 0.00 0.00
4:35 am 04:35 Clear with Mist and Fog 62 16.4 61 16.3 99 99 Calm 29.95 1014 5 8 0.00 0.00
4:55 am 04:55 Clear 61 16 61 15.9 99 99 Calm 29.95 1014 7 11 0.00 0.00
5:15 am 05:15 Mostly Cloudy with Fog 60 15.3 59 15.1 99 99 Calm 29.95 1014 1 1 0.00 0.00
5:35 am 05:35 Mostly Cloudy with Fog 59 15.2 59 15.2 100 100 S 5 7 29.95 1014 0 0 0.00 0.00
5:55 am 05:55 Clear 61 16.1 61 16.1 100 100 S 5 7 29.96 1015 7 11 0.00 0.00
6:15 am 06:15 Mostly Cloudy with Fog 60 15.5 60 15.5 100 100 S 5 7 29.96 1015 1 1 0.00 0.00
6:35 am 06:35 Clear with Mist and Fog 60 15.7 60 15.7 100 100 S 5 7 29.97 1015 4 6 0.00 0.00
6:55 am 06:55 Mostly Cloudy with Mist and Fog 62 16.5 62 16.5 100 100 Calm 29.98 1015 2 2 0.00 0.00
7:15 am 07:15 Mostly Cloudy with Fog 60 15.7 60 15.7 100 100 S 3 6 29.98 1015 1 1 0.00 0.00
7:35 am 07:35 Partly Cloudy 63 17.1 63 17.1 100 100 SSW 3 6 29.99 1015 7 11 0.00 0.00
7:55 am 07:55 Partly Cloudy 64 17.5 63 17.4 99 99 Calm 29.98 1015 7 11 0.00 0.00
8:15 am 08:15 Sunny 65 18.1 64 18 99 99 SW 3 6 29.98 1015 10 16 0.00 0.00
8:35 am 08:35 Partly Cloudy 66 18.7 65 18.4 98 98 SSW 3 6 29.99 1016 10 16 0.00 0.00
8:55 am 08:55 Partly Cloudy 67 19.3 65 18.6 96 96 SSW 5 7 30.00 1016 10 16 0.00 0.00
9:15 am 09:15 Mostly Cloudy 68 19.8 66 18.9 95 95 SW 6 9 30.01 1016 10 16 0.00 0.00
9:35 am 09:35 Cloudy 68 20.1 66 19.1 94 94 SSW 6 9 30.01 1016 10 16 0.00 0.00
9:55 am 09:55 Cloudy 68 20.2 66 19.1 93 93 SW 6 9 30.01 1016 10 16 0.00 0.00
10:15 am 10:15 Cloudy 69 20.7 66 19.1 91 91 WSW 5 7 30.00 1016 10 16 0.00 0.00
10:35 am 10:35 Cloudy 70 21.1 66 18.8 87 87 W 6 9 29.99 1016 10 16 0.00 0.00
10:55 am 10:55 Cloudy 71 21.6 67 19.2 86 86 Calm 29.99 1016 10 16 0.00 0.00
11:15 am 11:15 Cloudy 71 21.9 67 19.5 86 86 WNW 5 7 29.99 1016 10 16 0.00 0.00
11:35 am 11:35 undefined N/A N/A N/A undefined N/A N/A N/A 0.00 0.00
11:55 am 11:55 undefined N/A N/A N/A undefined N/A N/A N/A 0.00 0.00
12:15 pm 12:15 undefined N/A N/A N/A undefined N/A N/A N/A 0.00 0.00
12:35 pm 12:35 undefined 72 22.1 67 19.4 85 85 WNW 5 7 29.99 1016 10 16 0.00 0.00
1:15 pm 13:15 undefined N/A N/A N/A undefined N/A N/A N/A 0.00 0.00
1:35 pm 13:35 undefined N/A N/A N/A undefined N/A N/A N/A 0.00 0.00
1:55 pm 13:55 undefined 75 23.7 68 20.1 80 80 WNW 7 11 29.95 1014 10 16 0.00 0.00
2:15 pm 14:15 Mostly Cloudy 75 24.1 67 19.7 77 77 WNW 3 6 29.95 1014 10 16 0.00 0.00
2:35 pm 14:35 Partly Cloudy 76 24.5 67 19.2 72 72 NW 3 6 29.94 1014 10 16 0.00 0.00
2:55 pm 14:55 Mostly Cloudy 77 25 69 20.4 76 76 NNW 3 6 29.93 1014 10 16 0.00 0.00
3:15 pm 15:15 Cloudy 74 23.2 68 19.9 82 82 N 7 11 29.94 1014 10 16 0.00 0.00
3:35 pm 15:35 Cloudy 74 23.5 68 20 81 81 NNE 6 9 29.93 1014 10 16 0.00 0.00
3:55 pm 15:55 Cloudy with Strong Thunderstorms 72 22.1 67 19.6 86 86 NW 18 30 29.95 1014 5 8 0.03 0.76
4:15 pm 16:15 Cloudy with Heavy Rain 67 19.2 64 17.7 91 91 N 6 9 29.96 1015 2 3 0.24 6.10
4:35 pm 16:35 Cloudy 67 19.6 66 18.8 95 95 Calm 29.96 1014 10 16 0.25 6.35
4:55 pm 16:55 Cloudy with Nearby Thunderstorms 68 20.1 67 19.2 95 95 Calm 29.95 1014 10 16 0.25 6.35
5:10 pm 17:10 Partly Cloudy 69 20.4 67 19.7 96 96 Calm 29.95 1014 10 16 0.00 0.00
5:35 pm 17:35 Mostly Cloudy with Nearby Thunderstorms 70 20.9 68 20 95 95 SE 7 11 29.95 1014 10 16 0.00 0.00
5:55 pm 17:55 Cloudy with Light Rain 69 20.5 68 20 97 97 SSE 6 9 29.96 1015 10 16 0.00 0.00
6:15 pm 18:15 Cloudy with Rain 67 19.6 66 19 96 96 SSE 6 9 29.96 1014 10 16 0.00 0.00
6:35 pm 18:35 Cloudy 66 19 65 18.1 95 95 Calm 29.96 1015 10 16 0.00 0.00
6:55 pm 18:55 Cloudy 66 19.1 65 18.2 95 95 Calm 29.95 1014 10 16 0.00 0.00
7:15 pm 19:15 Cloudy 67 19.5 65 18.6 95 95 Calm 29.95 1014 10 16 0.00 0.00
7:35 pm 19:35 Cloudy 67 19.5 65 18.5 94 94 Calm 29.96 1014 10 16 0.00 0.00
7:55 pm 19:55 Mostly Cloudy 67 19.5 66 18.7 95 95 Calm 29.96 1014 10 16 0.00 0.00
8:15 pm 20:15 Mostly Cloudy 67 19.5 66 19 97 97 Calm 29.96 1014 10 16 0.00 0.00
8:35 pm 20:35 Mostly Cloudy 67 19.5 66 18.8 96 96 Calm 29.96 1014 10 16 0.00 0.00
8:55 pm 20:55 Partly Cloudy 67 19.3 66 18.8 97 97 Calm 29.96 1015 10 16 0.00 0.00
9:15 pm 21:15 Mostly Cloudy 67 19.2 66 19 99 99 Calm 29.96 1015 10 16 0.00 0.00
9:35 pm 21:35 Cloudy 67 19.3 66 19 98 98 Calm 29.97 1015 10 16 0.00 0.00
9:55 pm 21:55 Cloudy 67 19.3 66 18.9 98 98 NW 3 6 29.97 1015 10 16 0.00 0.00
10:15 pm 22:15 Mostly Cloudy 67 19.5 64 17.8 90 90 N 13 20 29.97 1015 10 16 0.00 0.00
10:35 pm 22:35 Mostly Cloudy 66 18.8 63 17.2 90 90 N 9 15 29.98 1015 10 16 0.00 0.00
10:55 pm 22:55 Partly Cloudy 65 18.2 63 17.1 93 93 N 6 9 29.98 1015 10 16 0.00 0.00
11:15 pm 23:15 Mostly Cloudy 65 18.1 62 16.8 92 92 N 8 13 29.98 1015 10 16 0.00 0.00
11:35 pm 23:35 Partly Cloudy 64 17.6 62 16.5 93 93 N 8 13 29.97 1015 10 16 0.00 0.00
11:55 pm 23:55 Clear 63 17.2 61 16.1 93 93 N 6 9 29.98 1015 10 16 0.00 0.00

Powered by AerisWeather